TimeEDT,TemperatureF,Dew PointF,Humidity,Sea Level PressureIn,VisibilityMPH,Wind Direction,Wind SpeedMPH,Gust SpeedMPH,PrecipitationIn,Events,Conditions,WindDirDegrees,DateUTC
12:15 AM,44.8,40.5,85,30.08,10.0,WSW,4.6,-,N/A,,Overcast,240,2012-09-23 04:15:00
12:34 AM,45.0,40.6,85,30.08,10.0,West,3.5,-,N/A,,Overcast,270,2012-09-23 04:34:00
12:55 AM,45.7,41.2,84,30.08,10.0,West,3.5,-,N/A,,Overcast,270,2012-09-23 04:55:00
1:15 AM,45.5,41.0,84,30.08,10.0,WSW,3.5,-,N/A,,Overcast,240,2012-09-23 05:15:00
1:35 AM,45.7,41.5,85,30.08,10.0,West,4.6,-,N/A,,Overcast,260,2012-09-23 05:35:00
1:55 AM,46.4,41.9,84,30.09,10.0,West,6.9,-,N/A,Rain,Light Rain,280,2012-09-23 05:55:00
2:14 AM,46.6,42.1,84,30.10,10.0,West,8.1,-,N/A,Rain,Light Rain,280,2012-09-23 06:14:00
2:35 AM,46.4,42.4,86,30.10,10.0,WSW,4.6,-,N/A,Rain,Light Rain,250,2012-09-23 06:35:00
2:55 AM,45.9,42.4,88,30.09,10.0,WSW,3.5,-,N/A,,Overcast,250,2012-09-23 06:55:00
3:14 AM,45.7,42.8,90,30.10,10.0,WSW,3.5,-,N/A,,Overcast,250,2012-09-23 07:14:00
3:35 AM,45.5,42.4,89,30.10,10.0,WSW,3.5,-,N/A,,Overcast,250,2012-09-23 07:35:00
3:55 AM,45.5,42.6,90,30.10,10.0,West,3.5,-,N/A,,Mostly Cloudy,280,2012-09-23 07:55:00
4:14 AM,44.6,41.9,90,30.10,10.0,Calm,Calm,-,N/A,,Mostly Cloudy,0,2012-09-23 08:14:00
4:35 AM,44.1,41.5,91,30.10,10.0,Calm,Calm,-,N/A,,Scattered Clouds,0,2012-09-23 08:35:00
4:55 AM,42.8,40.3,91,30.11,7.0,West,3.5,-,N/A,,Clear,260,2012-09-23 08:55:00
5:14 AM,42.6,40.1,91,30.11,10.0,WSW,3.5,-,N/A,,Clear,240,2012-09-23 09:14:00
5:35 AM,42.1,39.9,92,30.12,2.5,SW,4.6,-,N/A,,Mostly Cloudy,230,2012-09-23 09:35:00
5:55 AM,42.8,40.5,91,30.13,7.0,SW,3.5,-,N/A,,Overcast,230,2012-09-23 09:55:00
6:15 AM,43.3,41.2,92,30.13,10.0,WSW,4.6,-,N/A,,Overcast,240,2012-09-23 10:15:00
6:35 AM,43.2,41.2,93,30.13,10.0,WSW,4.6,-,N/A,,Overcast,250,2012-09-23 10:35:00
6:54 AM,43.7,41.7,93,30.14,10.0,West,5.8,-,N/A,,Overcast,260,2012-09-23 10:54:00
7:15 AM,44.1,41.9,92,30.14,10.0,West,4.6,-,N/A,,Overcast,270,2012-09-23 11:15:00
7:35 AM,43.5,41.4,92,30.14,10.0,West,3.5,-,N/A,,Overcast,260,2012-09-23 11:35:00
7:54 AM,44.8,42.8,93,30.15,10.0,West,4.6,-,N/A,,Overcast,260,2012-09-23 11:54:00
8:15 AM,45.0,42.8,92,30.15,10.0,West,4.6,-,N/A,,Overcast,270,2012-09-23 12:15:00
8:35 AM,45.5,43.0,91,30.15,10.0,West,5.8,-,N/A,,Overcast,270,2012-09-23 12:35:00
8:54 AM,46.4,43.7,90,30.15,10.0,West,4.6,-,N/A,,Overcast,270,2012-09-23 12:54:00
9:15 AM,47.3,43.9,88,30.16,10.0,West,6.9,-,N/A,,Mostly Cloudy,260,2012-09-23 13:15:00
9:35 AM,48.9,43.0,80,30.17,10.0,West,6.9,-,N/A,,Scattered Clouds,270,2012-09-23 13:35:00
9:54 AM,50.2,39.9,68,30.17,10.0,WNW,9.2,-,N/A,,Scattered Clouds,290,2012-09-23 13:54:00
10:15 AM,50.7,38.1,62,30.17,10.0,West,9.2,-,N/A,,Scattered Clouds,280,2012-09-23 14:15:00
10:34 AM,51.4,36.1,56,30.17,10.0,West,9.2,-,N/A,,Scattered Clouds,270,2012-09-23 14:34:00
10:55 AM,52.3,36.0,54,30.17,10.0,WNW,8.1,16.1,N/A,,Mostly Cloudy,290,2012-09-23 14:55:00
11:15 AM,51.4,36.1,56,30.17,10.0,West,8.1,-,N/A,,Mostly Cloudy,280,2012-09-23 15:15:00
11:34 AM,50.4,35.4,57,30.17,10.0,WNW,6.9,-,N/A,,Overcast,300,2012-09-23 15:34:00
11:55 AM,52.3,35.2,52,30.17,10.0,WNW,10.4,-,N/A,,Overcast,290,2012-09-23 15:55:00
12:15 PM,52.7,33.1,47,30.17,10.0,West,10.4,17.3,N/A,,Overcast,280,2012-09-23 16:15:00
12:35 PM,50.9,35.8,56,30.17,10.0,NW,8.1,-,N/A,Rain,Light Rain,310,2012-09-23 16:35:00
12:55 PM,53.6,32.9,45,30.16,10.0,West,12.7,17.3,N/A,,Overcast,280,2012-09-23 16:55:00
1:15 PM,52.3,34.2,50,30.17,10.0,NW,10.4,-,N/A,,Overcast,310,2012-09-23 17:15:00
1:35 PM,54.1,34.7,48,30.16,10.0,WNW,9.2,-,N/A,,Mostly Cloudy,300,2012-09-23 17:35:00
1:55 PM,57.6,32.0,38,30.15,10.0,West,13.8,19.6,N/A,,Mostly Cloudy,260,2012-09-23 17:55:00
2:14 PM,55.0,31.5,41,30.15,10.0,WNW,8.1,-,N/A,,Mostly Cloudy,300,2012-09-23 18:14:00
2:35 PM,56.7,30.7,37,30.15,10.0,West,12.7,19.6,N/A,,Mostly Cloudy,280,2012-09-23 18:35:00
2:55 PM,55.6,31.1,39,30.15,10.0,WNW,10.4,16.1,N/A,,Mostly Cloudy,300,2012-09-23 18:55:00
3:14 PM,55.8,29.7,37,30.15,10.0,WNW,9.2,-,N/A,,Mostly Cloudy,300,2012-09-23 19:14:00
3:35 PM,55.9,30.4,38,30.15,10.0,West,8.1,-,N/A,,Overcast,280,2012-09-23 19:35:00
3:55 PM,55.6,30.4,38,30.15,10.0,WNW,11.5,-,N/A,,Overcast,290,2012-09-23 19:55:00
4:14 PM,56.8,30.0,36,30.15,10.0,WNW,11.5,18.4,N/A,,Overcast,290,2012-09-23 20:14:00
4:35 PM,55.2,30.9,40,30.15,10.0,West,10.4,-,N/A,,Overcast,270,2012-09-23 20:35:00
4:55 PM,55.4,32.5,42,30.15,10.0,West,13.8,18.4,N/A,,Mostly Cloudy,280,2012-09-23 20:55:00
5:14 PM,54.7,32.7,43,30.15,10.0,West,11.5,-,N/A,,Mostly Cloudy,280,2012-09-23 21:14:00
5:35 PM,54.1,31.3,42,30.15,10.0,West,12.7,18.4,N/A,,Overcast,280,2012-09-23 21:35:00
5:55 PM,54.5,32.0,42,30.15,10.0,WNW,9.2,-,N/A,,Overcast,290,2012-09-23 21:55:00
6:15 PM,53.6,31.3,43,30.16,10.0,WNW,12.7,17.3,N/A,,Overcast,300,2012-09-23 22:15:00
6:35 PM,52.7,30.9,43,30.16,10.0,WNW,9.2,17.3,N/A,,Overcast,290,2012-09-23 22:35:00
6:54 PM,53.2,30.9,43,30.16,10.0,NW,15.0,20.7,N/A,,Overcast,310,2012-09-23 22:54:00
7:15 PM,50.9,35.6,56,30.17,10.0,NNW,3.5,-,N/A,,Overcast,330,2012-09-23 23:15:00
7:35 PM,48.9,35.2,59,30.17,10.0,Calm,Calm,-,N/A,,Scattered Clouds,0,2012-09-23 23:35:00
7:54 PM,47.7,35.6,63,30.18,10.0,Calm,Calm,-,N/A,,Clear,0,2012-09-23 23:54:00
8:15 PM,46.4,35.8,67,30.18,10.0,Calm,Calm,-,N/A,,Scattered Clouds,0,2012-09-24 00:15:00
8:35 PM,45.9,36.9,71,30.18,10.0,Calm,Calm,-,N/A,,Mostly Cloudy,0,2012-09-24 00:35:00
8:54 PM,46.4,36.7,69,30.19,10.0,Calm,Calm,-,N/A,,Overcast,0,2012-09-24 00:54:00
9:15 PM,45.5,37.9,75,30.19,10.0,WSW,3.5,-,N/A,,Overcast,240,2012-09-24 01:15:00
9:35 PM,45.5,38.1,75,30.20,10.0,WSW,3.5,-,N/A,,Overcast,240,2012-09-24 01:35:00
9:54 PM,45.1,38.5,77,30.20,10.0,Calm,Calm,-,N/A,,Overcast,0,2012-09-24 01:54:00
10:15 PM,45.0,38.3,77,30.20,10.0,Calm,Calm,-,N/A,,Overcast,0,2012-09-24 02:15:00
10:34 PM,44.8,38.3,78,30.20,10.0,Calm,Calm,-,N/A,,Overcast,0,2012-09-24 02:34:00
10:55 PM,44.1,37.6,78,30.20,10.0,WSW,3.5,-,N/A,,Overcast,250,2012-09-24 02:55:00
11:15 PM,43.9,37.6,78,30.21,10.0,WSW,3.5,-,N/A,,Overcast,250,2012-09-24 03:15:00
11:34 PM,43.0,36.5,78,30.21,10.0,WSW,3.5,-,N/A,,Mostly Cloudy,250,2012-09-24 03:34:00
11:55 PM,42.1,35.6,78,30.21,10.0,WSW,4.6,-,N/A,,Scattered Clouds,240,2012-09-24 03:55:00